User: anonymous   Login
Location: Aalen
(48.8330°N, 10.1000°E)
Time: 18:44:20
(UTC+02:00)
Language:

METEOR M2 - Orbit

View from above orbital plane
View from above orbital plane
View from above satellite
View from above satellite

Ground track
Ground track

The orbit data is extracted from the following two-line orbital elements,

1 40069U 14037A   24166.91810641  .00000212  00000-0  11683-3 0  9990
2 40069  98.4358 161.2575 0006021  17.6341 342.5044 14.20979109515304
Epoch (UTC): 14 June 2024 22:02:04
Eccentricity: 0.0006021
inclination: 98.4358°
perigee height: 818 km
apogee height: 826 km
right ascension of ascending node: 161.2575°
argument of perigee: 17.6341°
revolutions per day: 14.20979109
mean anomaly at epoch: 342.5044°
orbit number at epoch: 51530

The dashed part of the orbit path shows where the satellite is in the earth's shadow,  

DLR